Date,TemperatureHighF,TemperatureAvgF,TemperatureLowF,DewpointHighF,DewpointAvgF,DewpointLowF,HumidityHigh,HumidityAvg,HumidityLow,PressureMaxIn,PressureMinIn,WindSpeedMaxMPH,WindSpeedAvgMPH,GustSpeedMaxMPH,PrecipitationSumIn
2013-2-1,65,53,47,27,25,22,41,33,22,0.00,40.00,12,4,18,0.00
2013-2-2,62,55,51,32,22,19,46,28,21,0.00,40.00,9,2,15,0.00
2013-2-3,66,55,48,34,30,23,53,40,20,0.00,40.00,17,5,24,0.00
2013-2-4,69,57,48,26,18,14,35,22,14,0.00,40.00,31,11,41,0.00
2013-2-5,64,56,48,22,16,-3,30,21,8,0.00,40.00,40,6,52,0.00
2013-2-6,62,54,48,14,-2,-10,24,10,5,0.00,40.00,40,11,57,0.00
2013-2-7,61,50,41,19,11,-11,31,22,8,0.00,40.00,24,7,45,0.00
2013-2-8,42,38,35,23,16,8,53,41,27,0.00,40.00,35,16,52,0.00
2013-2-9,52,41,35,18,14,10,42,34,21,0.00,40.00,24,11,37,0.00
2013-2-10,48,41,36,16,12,9,43,30,22,0.00,40.00,32,16,47,0.00
2013-2-11,47,39,34,14,5,-3,39,25,13,0.00,40.00,30,20,47,0.00
2013-2-12,55,43,36,9,4,-2,27,20,13,0.00,40.00,7,2,15,0.00
2013-2-13,63,50,42,15,10,6,26,20,13,0.00,40.00,18,6,35,0.00
2013-2-14,66,54,47,22,19,15,34,25,15,0.00,40.00,40,20,57,0.00
2013-2-15,68,57,51,20,15,9,28,20,12,0.00,40.00,40,19,55,0.00
2013-2-16,66,57,50,11,4,-1,18,12,8,0.00,40.00,14,4,18,0.00
2013-2-17,67,57,49,18,6,-2,21,13,7,0.00,40.00,24,7,37,0.00
2013-2-18,61,53,44,20,14,4,31,21,14,0.00,40.00,26,10,37,0.00
2013-2-19,49,42,35,30,22,8,72,46,24,0.00,40.00,35,15,60,0.00
2013-2-20,51,42,33,24,13,4,67,34,14,0.00,40.00,51,27,67,0.00
2013-2-21,49,40,33,12,7,0,34,25,16,0.00,40.00,33,13,54,0.00
2013-2-22,58,46,38,15,7,5,29,20,13,0.00,40.00,10,3,19,0.00
2013-2-23,61,45,36,22,16,2,50,32,9,0.00,40.00,52,17,76,0.00
2013-2-24,51,41,34,8,2,-6,30,20,9,0.00,40.00,47,23,60,0.00
2013-2-25,57,46,38,5,0,-4,19,15,10,0.00,40.00,12,3,21,0.00
2013-2-26,61,48,42,6,4,-1,22,16,9,0.00,40.00,25,6,40,0.00
2013-2-27,58,48,38,6,2,0,20,15,11,0.00,40.00,12,4,21,0.00
2013-2-28,64,53,44,8,4,1,22,14,9,0.00,40.00,9,3,17,0.00